{"data":{"norad_id":39084,"intl_designator":"2013-008A","name":"LANDSAT 8","alt_names":[],"object_type":"PAYLOAD","status":"ACTIVE","operator":null,"country":"US","launch_date":"2013-02-11","launch_site_code":"AFWTR","launch_vehicle":null,"mission":null,"orbit_class":"UNKNOWN","rcs_meters":7.1149,"size_class":null,"mass_kg":null,"dimensions":null,"purposes":["earth_obs"],"wikipedia_slug":null,"has_3d_model":false,"image_url":null,"decayed_at":null,"tle_current":{"epoch":"2026-09-20T03:10:51.703104Z","epoch_age_seconds":46058,"freshness":"FRESH","line1":"1 39084U 13008A   26263.13254286  .00000171  00000+0  47971-4 0  9996","line2":"2 39084  98.2214 332.0963 0001319  94.5169 265.6180 14.57101746711728","mean_motion":14.57101746,"eccentricity":0.0001319,"inclination_deg":98.2214,"raan_deg":332.0963,"arg_perigee_deg":94.5169,"mean_anomaly_deg":265.618,"bstar":4.7971e-5,"rev_number":71172,"period_min":98.826317650984,"perigee_km":701.61375331794,"apogee_km":703.48163794065,"semimajor_km":7080.6846956293,"source":"CELESTRAK","updated_at":"2026-09-20T09:00:33.894228Z"}}}